When you browse on this site, cookies collect data to enhance your experience and personalize the content and advertising you see.
Visit our Privacy Policy to learn more. By continuing to use the site, you agree to this use of cookies and data.
  • In Netherlands
  • List of Countries
  • For 7 days
  • Water Temperature
  • Weather Map
  • Weather Widgets
  • user-avatar
    Login

    Hourly Weather Hrazdan

    Today, 15 October, Tuesday

    Time Temperature Precipitation Wind Pressure Humidity
    00:00 +10°C° 0 mm 1 mps 619 mmHg 48%
    01:00 +9°C° 0 mm 1 mps 618 mmHg 48%
    02:00 +9°C° 0 mm 1 mps 618 mmHg 48%
    03:00 +9°C° 0 mm 1 mps 618 mmHg 48%
    04:00 +9°C° 0 mm 1 mps 618 mmHg 45%
    05:00 +9°C° 0 mm 1 mps 618 mmHg 42%
    06:00 +8°C° 0 mm 1 mps 617 mmHg 39%
    07:00 +11°C° 0 mm 1 mps 618 mmHg 34%
    08:00 +13°C° 0 mm 1 mps 620 mmHg 30%
    09:00 +16°C° 0 mm 1 mps 621 mmHg 25%
    10:00 +18°C° 0 mm 1 mps 621 mmHg 23%
    11:00 +18°C° 0 mm 2 mps 621 mmHg 21%
    12:00 +19°C° 0 mm 2 mps 621 mmHg 19%
    13:00 +19°C° 0 mm 2 mps 620 mmHg 20%
    14:00 +19°C° 0 mm 2 mps 620 mmHg 21%
    15:00 +19°C° 0 mm 2 mps 619 mmHg 22%
    16:00 +17°C° 0 mm 2 mps 618 mmHg 26%
    17:00 +15°C° 0 mm 1 mps 617 mmHg 31%
    18:00 +12°C° 0 mm 0 mps 617 mmHg 36%
    19:00 +12°C° 0 mm 1 mps 617 mmHg 35%
    20:00 +12°C° 0 mm 1 mps 617 mmHg 33%
    21:00 +12°C° 0 mm 1 mps 617 mmHg 31%
    22:00 +11°C° 0 mm 1 mps 617 mmHg 30%
    23:00 +11°C° 0 mm 1 mps 616 mmHg 29%

    Tomorrow, 16 October, Wednesday

    Time Temperature Precipitation Wind Pressure Humidity
    00:00 +11°C° 0 mm 1 mps 616 mmHg 28%
    01:00 +11°C° 0 mm 1 mps 616 mmHg 28%
    02:00 +10°C° 0 mm 1 mps 616 mmHg 28%
    03:00 +10°C° 0 mm 1 mps 616 mmHg 28%
    04:00 +10°C° 0 mm 1 mps 616 mmHg 28%
    05:00 +10°C° 0 mm 1 mps 615 mmHg 28%
    06:00 +10°C° 0 mm 1 mps 615 mmHg 28%
    07:00 +12°C° 0 mm 1 mps 616 mmHg 26%
    08:00 +14°C° 0 mm 1 mps 617 mmHg 24%
    09:00 +18°C° 0 mm 1 mps 619 mmHg 21%
    10:00 +19°C° 0 mm 1 mps 619 mmHg 19%
    11:00 +20°C° 0 mm 1 mps 619 mmHg 18%
    12:00 +20°C° 0 mm 2 mps 619 mmHg 16%
    13:00 +20°C° 0 mm 2 mps 619 mmHg 16%
    14:00 +20°C° 0 mm 2 mps 618 mmHg 17%
    15:00 +20°C° 0 mm 2 mps 618 mmHg 17%
    16:00 +19°C° 0 mm 1 mps 617 mmHg 22%
    17:00 +16°C° 0 mm 1 mps 616 mmHg 26%
    18:00 +12°C° 0 mm 0 mps 615 mmHg 31%
    19:00 +13°C° 0 mm 1 mps 615 mmHg 32%
    20:00 +12°C° 0 mm 1 mps 615 mmHg 34%
    21:00 +12°C° 0 mm 1 mps 616 mmHg 35%
    22:00 +12°C° 0 mm 1 mps 616 mmHg 37%
    23:00 +11°C° 0 mm 1 mps 616 mmHg 38%

    Day after tomorrow, 17 October, Thursday

    Time Temperature Precipitation Wind Pressure Humidity
    00:00 +11°C° 0 mm 1 mps 616 mmHg 39%
    01:00 +11°C° 0 mm 1 mps 615 mmHg 40%
    02:00 +10°C° 0 mm 1 mps 615 mmHg 40%
    03:00 +10°C° 0 mm 1 mps 615 mmHg 41%
    04:00 +10°C° 0 mm 1 mps 615 mmHg 40%
    05:00 +10°C° 0 mm 1 mps 615 mmHg 40%
    06:00 +10°C° 0 mm 1 mps 615 mmHg 40%
    07:00 +12°C° 0 mm 1 mps 616 mmHg 35%
    08:00 +14°C° 0 mm 1 mps 617 mmHg 30%
    09:00 +15°C° 0 mm 0 mps 618 mmHg 25%
    10:00 +19°C° 0 mm 1 mps 619 mmHg 22%
    11:00 +19°C° 0 mm 2 mps 619 mmHg 20%
    12:00 +20°C° 0 mm 2 mps 619 mmHg 18%
    13:00 +20°C° 0 mm 2 mps 619 mmHg 19%
    14:00 +20°C° 0 mm 2 mps 618 mmHg 20%
    15:00 +20°C° 0 mm 2 mps 618 mmHg 21%
    16:00 +17°C° 0 mm 2 mps 617 mmHg 26%
    17:00 +15°C° 0 mm 1 mps 616 mmHg 31%
    18:00 +12°C° 0 mm 0 mps 616 mmHg 35%
    19:00 +12°C° 0 mm 0 mps 616 mmHg 36%
    20:00 +12°C° 0 mm 1 mps 616 mmHg 37%
    21:00 +12°C° 0 mm 1 mps 616 mmHg 38%
    22:00 +12°C° 0 mm 1 mps 615 mmHg 37%
    23:00 +11°C° 0 mm 1 mps 615 mmHg 37%

    18 October, Friday

    Time Temperature Precipitation Wind Pressure Humidity
    00:00 +11°C° 0 mm 1 mps 615 mmHg 36%
    01:00 +11°C° 0 mm 1 mps 615 mmHg 35%
    02:00 +11°C° 0 mm 1 mps 615 mmHg 33%
    03:00 +11°C° 0 mm 1 mps 615 mmHg 32%
    04:00 +11°C° 0 mm 1 mps 615 mmHg 35%
    05:00 +11°C° 0 mm 1 mps 615 mmHg 38%
    06:00 +10°C° 0 mm 1 mps 615 mmHg 41%
    07:00 +13°C° 0 mm 1 mps 616 mmHg 37%
    08:00 +15°C° 0 mm 2 mps 616 mmHg 34%
    09:00 +17°C° 0 mm 2 mps 617 mmHg 30%
    10:00 +18°C° 0 mm 2 mps 617 mmHg 30%
    11:00 +19°C° 0 mm 3 mps 617 mmHg 29%
    12:00 +20°C° 0 mm 3 mps 617 mmHg 28%
    13:00 +20°C° 0 mm 3 mps 617 mmHg 29%
    14:00 +20°C° 0 mm 3 mps 617 mmHg 29%
    15:00 +20°C° 0 mm 2 mps 616 mmHg 30%
    16:00 +18°C° 0 mm 2 mps 616 mmHg 35%
    17:00 +16°C° 0 mm 2 mps 615 mmHg 40%
    18:00 +14°C° 0 mm 1 mps 614 mmHg 45%
    19:00 +14°C° 0 mm 1 mps 614 mmHg 48%
    20:00 +13°C° 0 mm 1 mps 614 mmHg 51%
    21:00 +13°C° 0 mm 1 mps 614 mmHg 54%
    22:00 +13°C° 0 mm 1 mps 614 mmHg 53%
    23:00 +12°C° 0 mm 1 mps 614 mmHg 53%

    19 October, Saturday

    Time Temperature Precipitation Wind Pressure Humidity
    00:00 +12°C° 0 mm 1 mps 614 mmHg 53%
    01:00 +12°C° 0 mm 1 mps 614 mmHg 53%
    02:00 +12°C° 0 mm 1 mps 614 mmHg 53%
    03:00 +12°C° 0 mm 1 mps 614 mmHg 53%
    04:00 +12°C° 0 mm 1 mps 614 mmHg 55%
    05:00 +11°C° 0 mm 1 mps 614 mmHg 56%
    06:00 +11°C° 0 mm 1 mps 614 mmHg 58%
    07:00 +13°C° 0 mm 1 mps 615 mmHg 53%
    08:00 +15°C° 0 mm 1 mps 616 mmHg 47%
    09:00 +18°C° 0 mm 1 mps 617 mmHg 42%
    10:00 +19°C° 0 mm 1 mps 617 mmHg 39%
    11:00 +19°C° 0 mm 2 mps 617 mmHg 36%
    12:00 +20°C° 0 mm 2 mps 617 mmHg 33%
    13:00 +19°C° 0 mm 2 mps 617 mmHg 34%
    14:00 +19°C° 0 mm 2 mps 617 mmHg 35%
    15:00 +19°C° 0 mm 2 mps 616 mmHg 36%
    16:00 +18°C° 0.1 mm 1 mps 616 mmHg 44%
    17:00 +15°C° 0.1 mm 1 mps 615 mmHg 53%
    18:00 +13°C° 0.1 mm 1 mps 615 mmHg 62%
    19:00 +13°C° 0.1 mm 1 mps 615 mmHg 64%
    20:00 +13°C° 0.1 mm 1 mps 615 mmHg 66%
    21:00 +12°C° 0.1 mm 1 mps 616 mmHg 68%
    22:00 +12°C° 0 mm 1 mps 616 mmHg 71%
    23:00 +10°C° 0 mm 0 mps 615 mmHg 74%

    20 October, Sunday

    Time Temperature Precipitation Wind Pressure Humidity
    00:00 +10°C° 0 mm 0 mps 615 mmHg 77%
    01:00 +9°C° 0 mm 0 mps 615 mmHg 79%
    02:00 +10°C° 0 mm 1 mps 615 mmHg 80%
    03:00 +10°C° 0 mm 1 mps 614 mmHg 82%
    04:00 +9°C° 0 mm 1 mps 614 mmHg 83%
    05:00 +9°C° 0 mm 1 mps 614 mmHg 84%
    06:00 +9°C° 0 mm 1 mps 614 mmHg 85%
    07:00 +10°C° 0 mm 1 mps 615 mmHg 79%
    08:00 +12°C° 0 mm 1 mps 615 mmHg 73%
    09:00 +13°C° 0 mm 1 mps 616 mmHg 67%
    10:00 +14°C° 0.4 mm 1 mps 616 mmHg 62%
    11:00 +15°C° 0.4 mm 2 mps 616 mmHg 58%
    12:00 +16°C° 0.4 mm 2 mps 616 mmHg 54%
    13:00 +16°C° 0.9 mm 2 mps 616 mmHg 56%
    14:00 +16°C° 0.9 mm 2 mps 616 mmHg 58%
    15:00 +15°C° 0.9 mm 2 mps 615 mmHg 61%
    16:00 +14°C° 0.8 mm 2 mps 615 mmHg 66%
    17:00 +13°C° 0.8 mm 2 mps 615 mmHg 72%
    18:00 +12°C° 0.8 mm 2 mps 614 mmHg 77%
    19:00 +12°C° 0.1 mm 2 mps 614 mmHg 80%
    20:00 +10°C° 0.1 mm 2 mps 614 mmHg 82%
    21:00 +9°C° 0.1 mm 2 mps 614 mmHg 85%
    22:00 +9°C° 0.1 mm 2 mps 614 mmHg 85%
    23:00 +9°C° 0.1 mm 2 mps 614 mmHg 86%
    Show more